CZ-4C DEB

Satellite information

Favourite Embed

Satellite Type and Status

DEBRISIN ORBIT

Key statistics

Satellite CZ-4C DEB at a glance.

Uptime

1097

Days in orbit

Revolutions

≈ 14.3

Per day

Orbit

LEO

Low Earth Orbit

Inclination

60.0

Latest

Satellite identification and parameters

Extended collection of information and parameters for CZ-4C DEB.

Object identification

Identified? True

Debris? True

Object name: CZ-4C DEB

International designator: 2022-169D

Object number (NORAD): 54702

Object ID (CCSDS): 54702

Country: PEOPLES REPUBLIC OF CHINA (PRC)

Current information (Y/N): Y

RCS size: LARGE

Orbital parameters

Period: 100.551 minutes

Inclination: 59.996 deg

SMA: 7162.829 km

Apoapsis: 800.198 km

Periapsis: 769.191 km

RAAN: 131.6424 deg

Eccentricy: 0.00216449

Argument of periapsis: 83.9722 deg

Mean anomaly: 276.378 deg

Mean motion: 14.32108254 rev/day

Mean motion (dot): 0.00001167 rev/day2

B* drag term: 0.00048192734 1/REarth

Two-line elements (TLE)

Creation date: Dec. 11, 2025, 7:14 p.m.

Reference frame: TEME

Reference center: EARTH

Epoch: Dec. 11, 2025, 12:04 p.m. UTC

TLE line 0: 0 CZ-4C DEB

TLE line 1: 1 54702U 22169D 25345.50286337 .00001167 00000-0 48193-3 0 9994

TLE line 2: 2 54702 59.9960 131.6424 0021645 83.9722 276.3780 14.32108254156700

Live tracking on map

Real-time ground track for satellite CZ-4C DEB.

In-orbit conjunctions

A list of the most updated potential collisions computed for object CZ-4C DEB.

Target Orbit TCA Probability of collision Miss distance Type
ARIANE 1 DEB SSO 2025-04-29 03:05:50 0.0001184332 399.0 (m) DEBRIS
NOAA 16 DEB SSO 2024-11-24 21:50:12 0.0001456391 185.0 (m) DEBRIS

Associated space launch

Chinese classified satellites of unknown purposes.

CZ-4C DEB was lifted into orbit during the mission ‘Long March 4C | Shiyan 20A & 20B’, on board a Long March 4C space rocket.

The launch took place on Dec. 12, 2022, 8:22 a.m. from Launch Area 94 (SLS-2 / 603).

For more information about the launch, click the button.

Launch to space Long March 4C | Shiyan 20A & 20B
Long March 4C | Shiyan 20A & 20B

Agency: N/A

Status: Launch Successful

Launch date: Dec. 12, 2022, 8:22 a.m. UTC

Rocket: Long March 4C

Launch pad: Launch Area 94 (SLS-2 / 603)

Location: Jiuquan Satellite Launch Center, People's Republic of China

...

Latest news about this satellite

There are no fresh news available about this satellite. Check back as we update our databases every day.


Newsletter sign-up

Weekly statistics, charts and insights to help you stay on top of the space industry.